Location: *
(53.4003°S, 165.3236°W)
Time: 02:14:15
(UTC+00:00)

AQUA - Pass Details

Date: 11 December 2023
Orbit: 695 x 698 km, 98.3° (Epoch: 24 February)

Event Time Altitude Azimuth Distance (km) Brightness Sun altitude
Exits shadow 12:45:12 12° 352° (N) 2,065 5.6 -9.9°
Maximum altitude 12:49:31 47° 279° (W) 940 4.2 -9.6°
Drops below altitude 10° 12:54:10 10° 205° (SSW) 2,201 6.9 -9.3°
Sets 12:56:32 0° 198° (SSW) 3,126 7.9 -9.2°
